AL YAH 3 (43174 NORAD) Tracking and Keplerian Element Data

This shows tracking and keplerian element data for the satellite.

Feedback or suggestion? Click here.




ElementValue
Catalog43174
NameAL YAH 3
Epoch Orbit908
Epoch Day189.86569677
Epoch Year2020
RAAN342.0083
Inclination0.0153
Eccentricity0.0002292
Argument of Perigee130.5438
Mean Anonmoly105.2592
Mean Motion1.00270094
Decay Rate-1.66E-06
L11 43174U 18012A 20189.86569677 -.00000166 00000-0 00000-0 0 9999
L22 43174 0.0153 342.0083 0002292 130.5438 105.2592 1.00270094 9083

Live tracking and technical data element details for AL YAH 3 (NORAD 43174). AL YAH 3 can be tracked NOW for your location showing map with azimuth and elevation plus other details from your city location.

Track the satellite on the map from your city or location and see movement details for azimuth, elevation, latitude, longitude, range, height, and movement on the map or in text.







IsCatalogInMostPopularTable: catalog: 43174, numindb: 640
Update: records affected: 1



GetName: 43174 AL YAH 3

Hit Count: updated at: Wed, 08 Jul 2020 21:45:26 GMT